Regional Weather Roundup
Issued by NWS

Home | Current Version | Previous Version | Text Only | Print | Product List | Glossary Off
Versions: 1 2 3 4 5 6 7 8 9 10 11 12 13 14 15 16 17 18 19 20 21 22 23 24 25 26 27

000
ASUS45 KSLC 261710
RWRUT

UTAH REGIONAL WEATHER ROUNDUP
NATIONAL WEATHER SERVICE SALT LAKE CITY UT
1100 AM MDT TUE JUL 26 2016

UTZ001>011-023>025-261800-

NORTHERN UTAH

CITY           SKY/WX    TMP DP  RH WIND       PRES   REMARKS
BRIGHAM CITY     N/A     87  28  12 CALM      30.09S
HILL AFB       MOSUNNY   86  44  22 VRB3      30.12S
LOGAN          SUNNY     79  42  26 NW6       30.11F
OGDEN          SUNNY     87  48  25 VRB3      30.09S
PROVO AIRPORT  MOSUNNY   90  45  20 S3        30.12S
SALT LAKE CITY MOSUNNY   91  42  18 S12       30.05F
VERNAL         SUNNY     80  43  26 VRB3      30.19F
WENDOVER       SUNNY     86  30  13 E3        30.08F
HEBER CITY     SUNNY     82  43  24 NW5       30.18F

$$

UTZ012>022-026-027-261800-

SOUTHERN/CENTRAL UTAH

CITY           SKY/WX    TMP DP  RH WIND       PRES   REMARKS
BLANDING       CLOUDY    80  47  30 SE6       30.35S
BRYCE CANYON   SUNNY     80  42  25 VRB6      30.40S
CEDAR CITY     SUNNY     89  45  21 SW13      30.22S
DELTA          SUNNY     90  37  15 SW12      30.13S
MILFORD        SUNNY     89  46  22 S15       30.16F
MOAB/CYNLANDS  SUNNY     93  45  19 VRB6      30.12F
PRICE          SUNNY     84  38  19 VRB6      30.24S
ST GEORGE      SUNNY     93  48  21 W5        30.05S HX  90

$$

REGIONAL REPORTS     COLORADO/ARIZONA

CITY           SKY/WX    TMP DP  RH WIND       PRES   REMARKS
CRAIG, CO      SUNNY     84  38  19 SE3       30.27F
GRAND JUNCTION MOSUNNY   86  43  22 SE9       30.18S
RIFLE          CLOUDY    78  44  29 CALM      30.25S
MONTROSE       CLOUDY    78  45  30 CALM      30.28S
CORTEZ         CLOUDY    80  49  33 VRB5      30.28S
PAGE, AZ       MOSUNNY   90  45  21 CALM      30.14F
GRAND CANYON   PTSUNNY   81  45  28 CALM      30.35S
KINGMAN        SUNNY     97  44  16 VRB7      30.07S HX  93
FLAGSTAFF      PTSUNNY   71  59  65 N7        30.37F

$$

REGIONAL REPORTS    NEVADA/IDAHO/WYOMING

CITY           SKY/WX    TMP DP  RH WIND       PRES   REMARKS
LAS VEGAS, NV  SUNNY     98  49  18 CALM      29.92R HX  95
ELY            SUNNY     84  20   9 MISG      30.26F
ELKO           SUNNY     81  25  12 MISG      30.17F
POCATELLO, ID  SUNNY     81  44  27 VRB6      30.11F
BURLEY         SUNNY     79  50  36 CALM      30.08F
EVANSTON, WY   CLOUDY    81  32  17 S10G22    30.31F
ROCK SPRINGS   CLOUDY    82  32  16 W12       30.28F
KEMMERER         N/A     81  32  17 SW7       30.33F

$$




USA.gov is the U.S. government's official web portal to all federal, state and local government web resources and services.